Probability
10 8 4 1 0 0 0 0 0 0 1 1 3 5 6 6 6 6 5 2 0 0 0 0 0 1 2 2 3 3 3 3 1 0 0 0 0 0 1 2 1 0 0
9 7 3 1 0 0 0 0 1 1 3 4 5 6 7 7 7 7 6 4 2 1 0 0 0 0 1 1 2 3 3 3 2 1 0 0 0 1 2 3 3 1 0
10 8 5 2 2 1 1 1 2 3 5 6 6 6 7 8 8 8 7 6 5 3 1 0 0 0 0 0 1 2 3 3 3 1 1 0 0 1 3 4 4 3 1
10 10 8 6 4 3 2 3 4 5 6 8 7 7 7 7 7 7 7 7 6 5 3 1 0 0 0 0 0 1 2 3 3 2 1 0 1 2 4 5 5 3 2
12 12 11 9 7 5 4 3 4 6 8 10 11 10 8 7 7 6 6 6 6 6 5 3 1 0 0 0 0 0 1 3 3 2 1 0 1 3 5 6 6 4 3
14 14 13 12 9 7 6 6 6 9 11 13 14 13 10 8 7 6 6 6 6 6 6 5 3 1 0 0 0 0 1 2 3 2 1 0 1 3 5 7 7 5 4
16 16 16 14 11 10 10 11 11 12 15 17 16 15 13 10 7 6 6 6 6 6 6 6 5 3 1 0 0 0 0 1 2 2 2 1 0 1 4 6 6 5 4
15 17 18 16 14 13 13 13 13 14 17 19 19 17 15 11 8 6 5 6 6 6 6 6 4 3 2 0 0 0 0 0 0 1 1 2 1 1 2 4 4 3 3
13 15 17 17 16 16 14 13 13 15 18 19 19 18 16 13 9 5 4 4 6 6 6 6 4 3 2 0 0 0 0 1 1 1 1 2 2 1 1 3 3 3 2
10 11 13 14 16 17 15 12 13 16 18 18 18 18 17 14 10 5 3 5 6 6 6 6 4 3 2 0 0 1 1 2 2 2 3 3 3 2 3 4 5 5 4
7 7 9 11 14 16 15 13 14 15 16 16 18 18 17 15 11 6 4 5 6 7 7 7 5 3 1 0 0 2 2 1 1 1 3 5 5 6 6 7 7 7 7
5 6 7 8 10 13 14 15 15 14 14 15 17 18 18 15 12 8 3 3 5 7 8 7 5 2 0 0 0 1 1 1 1 1 3 5 7 7 7 7 7 7 7
3 4 6 7 9 11 14 16 17 16 16 16 16 16 17 16 14 9 4 3 3 5 7 5 2 1 0 0 0 0 0 1 2 3 4 6 6 6 6 6 6 6 6
2 3 5 6 9 11 13 15 17 17 18 18 17 15 15 16 14 10 7 5 3 3 3 2 0 0 0 1 1 1 1 2 2 3 4 5 6 6 7 6 6 6 6
3 3 4 6 8 10 11 12 13 14 14 15 15 14 13 13 11 9 8 7 4 2 1 1 1 1 1 2 3 3 2 2 1 1 3 4 4 6 7 6 5 4 4
5 4 4 6 7 8 10 11 10 8 7 8 9 9 10 9 8 7 6 4 2 1 1 2 2 2 2 3 5 5 3 1 1 1 3 3 3 4 6 7 6 5 5
5 5 5 5 6 7 9 10 10 7 4 3 4 4 5 5 5 4 2 1 1 1 2 3 4 3 3 4 5 6 5 4 3 3 4 4 4 4 5 7 8 8 8
5 5 6 6 6 6 6 8 10 8 5 3 2 2 2 1 1 1 1 1 1 2 3 5 5 4 4 4 5 7 7 7 6 5 4 4 4 5 5 6 8 9 9
4 5 6 5 4 4 4 6 8 9 7 4 3 3 2 1 1 1 1 2 3 4 5 5 5 5 5 4 5 6 7 6 5 4 3 3 3 4 4 4 5 6 6
4 4 5 4 3 3 3 4 7 8 6 4 4 3 3 3 2 2 3 3 2 3 4 4 4 4 4 5 5 5 4 4 4 3 2 2 2 1 2 3 3 4 4
3 3 4 3 3 3 3 4 6 7 5 4 4 3 3 3 3 3 3 3 2 2 3 3 3 3 3 4 4 4 3 3 3 2 1 1 1 0 1 2 3 2 2
4 4 3 3 3 3 4 5 6 5 4 3 3 2 2 3 3 3 3 2 2 2 2 2 3 3 3 2 2 2 3 2 1 1 0 0 0 0 1 1 1 1 1
6 5 4 4 3 3 3 4 5 4 3 2 2 1 1 2 2 2 1 1 1 1 1 1 1 2 1 1 1 1 1 1 1 0 0 0 0 0 0 0 0 0 0
6 6 6 5 4 3 2 2 2 2 1 1 1 0 0 1 1 1 0 0 0 0 0 0 0 0 0 0 0 0 0 0 0 0 0 0 0 0 0 0 0 0 0
4 4 5 4 3 1 1 0 1 1 0 0 0 0 0 0 0 0 0 0 0 0 0 0 0 0 0 0 0 0 0 0 0 0 0 0 0 0 0 0 0 0 0
2 2 2 2 1 0 0 0 0 0 0 0 0 0 0 0 0 0 0 0 0 0 0 0 0 0 0 0 0 0 0 0 0 0 0 0 0 0 0 0 0 0 0
Wind_Speed
4 3 3 2 2 1 1 1 1 1 1 1 1 1 1 1 1 1 2 2 1 2 2 1 2 1 1 1 1 1 1 2 2 2 1 1 2 2 2 3 4 4 5
4 3 3 2 1 1 1 1 1 1 1 1 1 1 1 1 1 1 2 2 1 2 2 2 2 1 1 1 1 1 2 2 2 2 2 1 2 3 3 4 3 4 4
3 3 2 2 2 2 2 2 1 1 1 1 1 1 1 1 1 2 2 2 2 2 2 2 2 1 2 2 2 2 2 2 2 2 2 2 2 2 1 2 3 2 4
4 3 3 3 3 2 2 2 2 1 1 1 1 2 2 2 2 2 2 2 2 3 2 2 2 2 2 2 2 2 2 2 2 2 2 2 2 1 1 1 2 2 3
4 3 3 3 2 2 2 2 2 1 1 1 1 2 2 2 2 2 2 2 2 3 3 3 3 3 3 3 2 2 2 2 2 2 2 2 2 1 2 2 3 2 3
3 3 2 2 2 2 2 2 1 2 2 2 2 2 3 3 4 4 3 2 2 3 3 4 4 3 4 4 4 3 2 3 3 3 3 4 5 4 3 3 2 2 3
3 2 2 2 2 3 2 2 2 3 2 3 3 3 3 4 5 4 4 2 3 3 4 3 4 4 3 3 4 5 5 5 5 5 5 6 5 5 4 4 4 4 5
3 2 2 2 3 3 2 2 3 3 3 3 3 3 3 4 5 4 4 3 3 3 4 4 4 4 4 3 3 4 4 5 6 5 6 7 7 5 6 6 6 5 4
1 2 2 3 3 2 3 3 3 2 3 3 3 3 3 4 4 4 4 2 3 4 4 4 4 4 6 5 3 4 5 6 7 7 8 8 9 8 6 3 3 3 4
1 2 2 2 2 3 4 3 3 2 3 2 2 3 3 4 4 4 3 2 3 3 3 4 5 5 6 5 4 4 6 6 5 5 5 6 6 7 7 6 5 4 3
1 1 2 2 3 3 2 2 2 2 2 2 2 2 3 3 4 4 4 2 3 3 3 3 4 7 7 7 5 5 7 6 4 4 4 4 4 4 4 4 5 6 5
1 1 2 2 2 1 1 2 1 1 2 3 2 3 3 3 3 4 5 5 4 3 4 4 4 6 6 6 4 5 6 4 2 3 3 4 4 4 4 4 6 6 7
1 2 2 2 2 1 1 2 1 1 2 3 2 3 3 3 3 5 6 6 6 3 4 5 6 5 4 4 5 6 4 2 2 3 4 5 4 4 3 3 3 4 4
1 2 2 2 2 2 1 1 1 2 2 2 3 3 3 3 3 3 3 3 4 3 3 4 5 4 3 4 4 3 2 2 2 3 4 4 3 3 3 2 3 2 2
1 2 2 1 1 2 2 2 2 3 3 3 3 2 2 3 5 4 3 2 2 2 2 2 2 2 3 3 3 2 2 2 2 2 3 4 3 3 3 2 2 2 2
1 2 2 2 2 2 2 3 4 2 3 3 3 3 3 5 6 5 5 4 4 2 1 1 2 2 2 2 2 3 2 2 2 2 2 3 3 3 3 2 1 1 2
1 2 2 2 2 2 2 2 2 4 4 4 3 3 3 5 5 5 4 3 2 1 1 1 2 2 2 2 2 2 3 3 2 2 2 3 3 3 3 3 2 2 2
2 3 2 2 2 2 2 2 2 1 2 3 4 4 5 5 5 5 4 3 2 1 1 2 2 2 2 2 2 2 2 3 2 2 2 3 3 3 3 3 3 2 2
2 2 2 2 2 2 2 2 1 2 2 2 2 3 4 4 3 3 2 1 1 1 2 2 2 2 2 2 2 2 2 2 2 2 3 3 3 3 3 3 3 3 2
2 3 2 1 1 1 1 1 1 1 2 2 2 3 2 1 1 2 1 1 1 2 1 1 2 2 1 1 2 2 2 2 2 2 3 3 3 3 3 4 3 3 2
2 2 2 1 1 1 1 1 1 1 2 2 3 3 3 2 2 2 1 2 2 2 2 1 1 2 1 1 1 1 1 2 2 2 2 3 3 3 3 3 3 3 2
1 1 1 1 1 1 2 1 1 1 2 3 3 3 3 2 1 1 2 2 2 1 1 1 1 1 1 1 1 1 1 2 2 2 2 3 3 3 3 2 3 2 2
1 1 1 1 1 1 1 1 1 1 2 2 2 2 1 1 2 1 1 1 1 1 1 1 1 2 2 1 1 0 1 2 3 3 3 3 3 3 3 3 3 3 2
1 1 1 1 1 1 1 2 1 1 1 1 1 1 1 1 1 1 1 2 1 2 1 1 1 1 2 2 1 1 1 2 2 2 3 3 3 3 2 2 2 2 2
1 1 1 1 1 1 1 1 1 1 1 1 1 1 1 1 1 1 1 1 1 1 2 2 1 1 2 2 2 2 3 3 3 3 2 2 3 3 2 2 2 2 1
1 1 1 1 1 1 1 1 1 0 0 1 1 1 1 1 1 1 1 1 1 1 2 2 2 2 3 2 3 3 3 3 3 3 2 1 1 1 1 1 2 1 1
Wind_Direction
168 167 160 166 173 162 188 238 266 293 309 324 320 324 319 324 328 339 323 335 333 319 320 324 298 292 310 303 262 189 176 159 188 255 247 260 205 223 215 213 217 216 223
174 165 167 170 165 187 239 248 249 282 285 281 295 305 295 311 309 303 308 326 317 310 307 317 302 299 300 296 290 245 226 202 182 228 261 249 234 229 216 219 225 223 228
165 164 170 188 188 211 246 255 257 264 279 299 309 276 276 287 293 280 272 284 286 283 285 287 287 282 285 283 268 258 245 231 193 198 239 234 241 241 214 246 238 237 236
160 165 188 208 211 217 233 246 247 244 239 265 269 256 254 263 276 282 278 275 280 280 280 274 274 259 264 269 270 260 248 231 209 206 236 241 243 248 184 224 262 252 243
159 168 193 204 209 216 232 250 257 254 258 251 271 274 265 266 276 289 281 282 276 279 282 275 270 273 278 268 270 252 241 231 222 226 243 249 250 241 223 218 233 249 248
158 182 188 188 198 221 234 241 255 263 269 262 261 260 269 283 295 288 280 272 273 272 279 278 274 270 279 279 279 270 237 223 227 228 241 242 245 237 229 222 221 224 258
160 183 186 190 202 221 232 237 245 252 262 265 263 258 259 272 284 280 275 263 264 266 268 270 280 286 275 274 280 279 266 252 228 218 232 242 242 233 224 230 225 221 235
172 191 197 197 215 228 231 241 248 249 254 256 259 255 260 285 286 275 278 266 265 267 263 257 259 275 275 260 267 278 272 266 249 235 232 242 242 233 219 223 225 235 253
182 219 223 210 214 225 235 244 244 248 259 259 258 251 254 281 287 279 276 270 273 277 275 272 261 266 275 263 254 268 278 281 270 256 250 251 250 246 227 209 217 219 251
250 252 249 229 219 228 238 246 250 249 255 264 271 257 249 263 283 282 272 261 274 283 286 278 269 275 282 269 245 251 267 275 284 292 282 276 263 251 232 213 208 212 229
271 302 296 274 251 239 244 256 267 267 281 277 273 274 267 265 281 285 277 257 255 267 277 283 288 291 284 275 254 245 254 264 278 280 281 281 277 261 243 225 210 205 213
349 347 317 299 285 290 255 263 276 281 288 285 280 285 283 277 275 280 275 266 265 248 263 275 284 292 291 286 271 271 272 271 277 285 285 284 278 269 256 241 231 223 222
13 332 314 313 302 296 266 264 277 279 276 281 277 278 291 296 293 292 285 275 273 262 267 284 295 296 295 290 282 278 275 275 284 289 281 275 269 266 262 253 251 241 244
356 325 327 329 320 320 294 248 233 239 251 273 276 276 288 300 306 312 305 292 286 291 293 298 301 308 307 298 302 299 276 260 258 273 283 283 281 280 270 250 253 258 261
331 308 303 302 299 304 295 262 243 234 220 221 245 252 270 288 288 290 287 294 286 283 310 335 352 350 345 332 322 315 314 323 299 292 298 304 304 298 287 272 255 245 242
315 311 307 303 299 298 301 312 322 309 296 261 246 246 258 268 291 303 300 298 300 314 74 325 300 299 302 308 311 314 320 314 301 305 306 304 304 300 296 294 269 243 253
243 263 272 274 275 280 282 272 300 327 331 321 302 285 282 296 306 314 317 324 332 107 119 268 280 290 293 296 296 293 295 297 302 313 313 313 312 309 306 302 296 270 259
264 261 254 247 250 260 268 265 246 255 301 308 303 297 305 309 315 320 332 21 19 27 268 267 276 286 291 296 299 303 309 320 329 328 323 323 319 312 308 305 291 273 265
275 271 264 252 249 259 273 274 263 260 269 284 307 313 314 316 323 329 356 23 295 287 277 284 291 295 298 306 311 311 311 317 323 321 319 316 315 316 312 306 299 289 265
279 283 282 270 279 286 293 278 266 266 270 277 281 282 302 330 325 320 306 270 273 278 278 283 292 298 300 307 316 324 330 329 326 319 315 314 312 309 309 312 308 295 266
279 290 299 316 283 266 262 253 251 261 269 271 271 270 256 244 254 264 265 257 255 260 264 268 287 303 300 299 304 320 325 320 315 309 308 310 313 310 308 310 308 299 288
274 270 264 251 257 262 264 258 259 268 273 278 289 299 279 266 264 263 271 279 275 269 260 245 299 304 292 287 287 305 317 311 307 304 308 310 311 308 308 311 309 306 297
285 289 281 269 261 287 306 301 289 285 293 296 301 314 305 291 297 294 293 300 310 308 321 349 350 326 320 324 317 281 280 283 281 281 293 301 303 305 306 307 309 311 305
282 280 268 276 277 279 286 284 284 288 294 302 316 319 314 307 320 329 330 332 346 353 358 3 346 311 312 308 299 292 283 283 286 286 287 290 297 298 300 308 312 320 321
300 276 269 269 274 276 284 285 284 292 312 316 328 333 322 326 334 340 343 349 4 3 355 351 345 343 333 327 321 318 316 313 306 302 290 278 283 290 294 297 300 312 328
327 302 276 278 280 282 277 276 281 299 303 314 332 326 325 331 334 345 351 358 357 339 339 342 343 343 338 333 332 334 329 325 319 308 286 274 279 282 300 299 308 313 310